Lalas, Greece

2:32 PM EEST on May 25, 2017 (GMT +0300)
Lalas

Weather History for WLGAV - September, 2013

Change the Weather History Date:

Sunday, September 1, 2013

  Actual Average Record
Temperature  
Mean Temperature 76 °F -  
Max Temperature 82 °F - - ()
Min Temperature 68 °F - - ()
Cooling Degree Days 12    
Growing Degree Days 26 (Base 50)    
Moisture  
Dew Point 52 °F    
Average Humidity 44    
Maximum Humidity 64    
Minimum Humidity 28    
Precipitation  
Precipitation 0.00 in - - ()
Sea Level Pressure  
Sea Level Pressure 30.04 in    
Wind  
Wind Speed 10 mph ()    
Max Wind Speed 21 mph    
Max Gust Speed -    
Visibility 6.2 miles    
Events      
T = Trace of Precipitation, MM = Missing Value Source: Averaged Metar Reports

Daily Weather History Graph

Daily Weather History Graph

Search for Another Location

Airport or City:

Trip Planner

Search our weather history database for the weather conditions in past years. The results will help you decide how hot, cold, wet, or windy it might be!

Date:

Astronomy

Sep. 01, 2013 Rise Set
Actual Time 6:52 AM EEST 7:51 PM EEST
Civil Twilight 6:25 AM EEST 8:18 PM EEST
Nautical Twilight 5:52 AM EEST 8:50 PM EEST
Astronomical Twilight 5:19 AM EEST 9:23 PM EEST
Moon 2:59 AM EEST (9/1) 5:15 PM EEST (9/1)
Length of Visible Light 13h 53m
Length of Day
12h 59m
Waning Crescent, 16% of the Moon is Illuminated
Sep 1
Waning Crescent
Sep 5
New
Sep 12
First Quarter
Sep 19
Full
Sep 27
Last Quarter

Hourly Weather History & Observations

Time (EEST) Temp. Dew Point Humidity Pressure Visibility Wind Dir Wind Speed Gust Speed Precip Events Conditions
12:20 AM 73.4 °F 51.8 °F 47% 30.01 in 6.2 mi NE 8.1 mph - N/A   Partly Cloudy
12:50 AM 73.4 °F 53.6 °F 50% 30.01 in 6.2 mi Variable 1.2 mph - N/A   Partly Cloudy
1:20 AM 73.4 °F 51.8 °F 47% 30.01 in 6.2 mi NNE 4.6 mph - N/A   Scattered Clouds
1:50 AM 73.4 °F 51.8 °F 47% 30.01 in 6.2 mi Calm Calm - N/A   Scattered Clouds
2:20 AM 73.4 °F 51.8 °F 47% 30.01 in 6.2 mi NNE 5.8 mph - N/A   Partly Cloudy
2:50 AM 73.4 °F 51.8 °F 47% 30.01 in 6.2 mi NNE 11.5 mph - N/A   Partly Cloudy
3:20 AM 71.6 °F 51.8 °F 50% 30.01 in 6.2 mi North 10.4 mph - N/A   Partly Cloudy
3:50 AM 73.4 °F 53.6 °F 50% 30.01 in 6.2 mi NNE 16.1 mph - N/A   Partly Cloudy
4:20 AM 73.4 °F 55.4 °F 53% 30.01 in 6.2 mi NNE 20.7 mph - N/A   Partly Cloudy
4:50 AM 73.4 °F 57.2 °F 57% 30.01 in 6.2 mi NE 19.6 mph - N/A   Partly Cloudy
5:20 AM 71.6 °F 57.2 °F 60% 30.01 in 6.2 mi NNE 16.1 mph - N/A   Partly Cloudy
5:50 AM 71.6 °F 59.0 °F 64% 30.01 in 6.2 mi NNE 12.7 mph - N/A   Partly Cloudy
6:20 AM 71.6 °F 59.0 °F 64% 30.01 in 6.2 mi North 9.2 mph - N/A   Partly Cloudy
6:50 AM 71.6 °F 59.0 °F 64% 30.04 in 6.2 mi North 6.9 mph - N/A   Partly Cloudy
7:20 AM 71.6 °F 59.0 °F 64% 30.04 in - North 6.9 mph - N/A   Clear
7:50 AM 73.4 °F 59.0 °F 61% 30.04 in - NNW 4.6 mph - N/A   Clear
8:20 AM 75.2 °F 55.4 °F 50% 30.04 in - North 8.1 mph - N/A   Clear
8:50 AM 77.0 °F 53.6 °F 44% 30.04 in - North 9.2 mph - N/A   Clear
9:20 AM 77.0 °F 53.6 °F 44% 30.06 in - NNE 11.5 mph - N/A   Clear
9:50 AM 78.8 °F 51.8 °F 39% 30.06 in - North 12.7 mph - N/A   Clear
10:20 AM 78.8 °F 51.8 °F 39% 30.06 in - NNE 13.8 mph - N/A   Clear
10:50 AM 78.8 °F 51.8 °F 39% 30.06 in - North 12.7 mph - N/A   Clear
11:20 AM 78.8 °F 50.0 °F 36% 30.06 in 6.2 mi NNE 15.0 mph - N/A   Partly Cloudy
11:50 AM 80.6 °F 51.8 °F 37% 30.06 in 6.2 mi NNE 15.0 mph - N/A   Partly Cloudy
12:20 PM 80.6 °F 50.0 °F 34% 30.06 in 6.2 mi NNE 13.8 mph - N/A   Partly Cloudy
12:50 PM 82.4 °F 50.0 °F 32% 30.06 in 6.2 mi NE 16.1 mph - N/A   Partly Cloudy
1:20 PM 80.6 °F 46.4 °F 30% 30.06 in 6.2 mi NE 16.1 mph - N/A   Partly Cloudy
1:50 PM 82.4 °F 46.4 °F 28% 30.06 in 6.2 mi NE 16.1 mph - N/A   Partly Cloudy
2:20 PM 82.4 °F 48.2 °F 30% 30.04 in - NE 17.3 mph - N/A   Clear
2:50 PM 82.4 °F 46.4 °F 28% 30.04 in 6.2 mi NE 18.4 mph - N/A   Partly Cloudy
3:20 PM 82.4 °F 48.2 °F 30% 30.04 in 6.2 mi ENE 17.3 mph - N/A   Partly Cloudy
3:50 PM 82.4 °F 51.8 °F 35% 30.04 in 6.2 mi ENE 17.3 mph - N/A   Partly Cloudy
4:20 PM 82.4 °F 50.0 °F 32% 30.04 in 6.2 mi ENE 13.8 mph - N/A   Partly Cloudy
4:50 PM 82.4 °F 48.2 °F 30% 30.01 in 6.2 mi ENE 17.3 mph - N/A   Partly Cloudy
5:20 PM 82.4 °F 50.0 °F 32% 30.01 in 6.2 mi ENE 13.8 mph - N/A   Partly Cloudy
5:50 PM 80.6 °F 50.0 °F 34% 30.01 in - NE 18.4 mph - N/A   Clear
6:20 PM 80.6 °F 51.8 °F 37% 30.01 in - NE 18.4 mph - N/A   Clear
6:50 PM 78.8 °F 51.8 °F 39% 30.01 in - NE 18.4 mph - N/A   Clear
7:20 PM 78.8 °F 51.8 °F 39% 30.04 in - NE 17.3 mph - N/A   Clear
7:50 PM 77.0 °F 51.8 °F 41% 30.04 in - NE 12.7 mph - N/A   Clear
8:20 PM 75.2 °F 51.8 °F 44% 30.04 in - NNE 10.4 mph - N/A   Clear
8:50 PM 75.2 °F 53.6 °F 47% 30.04 in - NNE 6.9 mph - N/A   Clear
9:20 PM 73.4 °F 55.4 °F 53% 30.06 in - North 4.6 mph - N/A   Clear
9:50 PM 73.4 °F 53.6 °F 50% 30.06 in - Variable 3.5 mph - N/A   Clear
10:20 PM 71.6 °F 55.4 °F 57% 30.06 in - Variable 3.5 mph - N/A   Clear
10:50 PM 75.2 °F 48.2 °F 38% 30.06 in - Variable 3.5 mph - N/A   Clear
11:20 PM 73.4 °F 48.2 °F 41% 30.06 in - NE 5.8 mph - N/A   Clear
11:50 PM 68.0 °F 46.4 °F 46% 30.06 in - WNW 4.6 mph - N/A   Clear